Погода в Утёвке

Россия / Самарская область     52°54′20″N   50°57′03″E
темп.,
°C
ветер,
м/с
пор.,
м/с
влажн.,
%
обл.,
%
осадки,
мм/ч
давл.,
гПа
погр.,
м
23 октября, сб
сб2301:00+11зюз6147812 0.0 1009514
04:00+9юз512885 0.0 1010332
07:00+8юз411925 0.0 1011258
10:00+11юз51274100 0.0 1012451
13:00+15зюз7155624 0.0 10131617
16:00+14зюз61252100 0.0 10131412
19:00+11юз3856100 0.0 1014164
22:00+11ююз2356100 0.0 101447
24 октября, вс
вс2401:00+10ююв2280100 0.8 101287
04:00+10юз41093100 6.1 1009599
07:00+8юз31088100 1.2 1010582
10:00+9сз487892 1.3 1012736
13:00+11з68555 0.0 10141326
16:00+10з57555 0.0 10141327
19:00+7з346910 0.0 101584
22:00+6зюз2273100 0.0 101631
25 октября, пн
пн2501:00+5з2276100 0.0 101528
04:00+5юз2275100 0.0 101533
07:00+5зюз2475100 0.0 101486
10:00+6зсз5672100 0.0 1015498
13:00+4сз5789100 0.1 1016706
16:00+5сз6879100 0.3 1017801
19:00+3ссз61190100 0.1 1021771
22:00+2ссз510747 0.1 1023733
26 октября, вт
вт2601:000ссз49735 0.0 1025386
04:00−1сз3779100 0.0 1027247
07:00−1зсз228059 0.0 102834
10:00+2зюз35605 0.0 1028379
13:00+5зюз674155 0.0 1027891
16:00+5зюз694119 0.0 1026971
19:00+3юз6135084 0.0 1026553
22:00+2зюз5135722 0.0 1025388
27 октября, ср
ср2701:00+1зюз4116749 0.0 1025271
04:000юз410725 0.0 1025241
07:000юз411756 0.0 1025241
10:00+4зюз6115779 0.0 1025398
13:00+8зюз6104393 0.0 1024672
16:00+8юз6114360 0.0 1023718
19:00+5юз61449100 0.0 1023450
22:00+4юз6145080 0.0 1022422